KN6DHD Weather Reports


time (UTC)temp
F
wind
direction
speed
knots
gust
knots
rain 1hr
in
rain 24hr
in
rain mn
in
humidity
%
barometer
mb
20260506191658 72 341 1.7 1.7 0.00 0.00 0.00 62 1020.6
20260506191153 71 131 0.0 0.9 0.00 0.00 0.00 65 1020.8
20260506190651 71 348 1.7 1.7 0.00 0.00 0.00 64 1020.9
20260506190147 69 259 1.7 1.7 0.00 0.00 0.00 67 1021.0
20260506185645 69 190 0.9 1.7 0.00 0.00 0.00 67 1020.9
20260506185141 69 89 0.9 0.9 0.00 0.00 0.00 66 1020.7
20260506184639 70 10 0.9 0.9 0.00 0.00 0.00 65 1021.0
20260506184136 69 345 2.6 2.6 0.00 0.00 0.00 69 1021.1
20260506183632 69 2 2.6 2.6 0.00 0.00 0.00 67 1021.2
20260506183128 69 132 0.9 0.9 0.00 0.00 0.00 68 1021.0
20260506182626 69 78 0.0 0.9 0.00 0.00 0.00 69 1021.1
20260506182122 68 161 1.7 1.7 0.00 0.00 0.00 70 1021.3
20260506181620 67 129 1.7 1.7 0.00 0.00 0.00 71 1021.2
20260506181117 67 160 1.7 1.7 0.00 0.00 0.00 71 1021.2
20260506180614 67 106 0.0 0.0 0.00 0.00 0.00 72 1021.1
20260506180111 66 191 2.6 4.3 0.00 0.00 0.00 72 1021.4
20260506175607 67 79 0.9 0.9 0.00 0.00 0.00 71 1021.4
20260506175103 66 82 0.0 0.0 0.00 0.00 0.00 73 1021.2
20260506174602 66 113 0.0 0.0 0.00 0.00 0.00 75 1021.4
20260506174058 65 55 0.0 0.9 0.00 0.00 0.00 74 1021.2
20260506173556 65 116 0.0 0.0 0.00 0.00 0.00 74 1021.1
20260506173052 65 106 0.9 1.7 0.00 0.00 0.00 74 1021.3
20260506172550 64 89 0.0 0.9 0.00 0.00 0.00 76 1021.3
20260506172046 65 77 0.9 0.9 0.00 0.00 0.00 74 1021.4
20260506171543 64 117 0.0 0.0 0.00 0.00 0.00 76 1021.5
20260506171040 63 146 1.7 1.7 0.00 0.00 0.00 78 1021.4
20260506170538 63 157 0.9 0.9 0.00 0.00 0.00 78 1021.4
20260506170030 63 206 1.7 1.7 0.00 0.00 0.00 77 1021.6
20260506165528 63 97 0.0 0.0 0.00 0.00 0.00 79 1021.5
20260506165024 62 105 0.0 0.0 0.00 0.00 0.00 79 1021.5
20260506164521 62 165 1.7 2.6 0.00 0.00 0.00 79 1021.2
20260506164018 62 96 0.9 0.9 0.00 0.00 0.00 80 1021.3
20260506163514 62 94 0.0 0.0 0.00 0.00 0.00 81 1021.2
20260506163010 61 108 0.9 0.9 0.00 0.00 0.00 82 1021.3
20260506162506 61 77 0.9 0.9 0.00 0.00 0.00 81 1021.3
20260506162004 62 110 0.0 0.0 0.00 0.00 0.00 82 1021.3
20260506161501 61 121 0.9 0.9 0.00 0.00 0.00 82 1021.3
20260506160958 61 143 0.9 0.9 0.00 0.00 0.00 82 1021.5
20260506160455 60 103 0.0 0.0 0.00 0.00 0.00 83 1021.2
20260506155952 60 99 0.0 0.0 0.00 0.00 0.00 83 1021.3
20260506155450 60 91 0.0 0.0 0.00 0.00 0.00 83 1021.4
20260506153617 60 113 0.0 0.0 0.00 0.00 0.00 83 1021.2
20260506153114 60 120 0.0 0.9 0.00 0.00 0.00 83 1021.4
20260506152611 60 141 0.9 0.9 0.00 0.00 0.00 83 1021.4
20260506152109 60 131 0.0 0.9 0.00 0.00 0.00 83 1021.5
20260506151607 60 89 0.9 0.9 0.00 0.00 0.00 83 1021.3
20260506151104 60 113 0.0 0.9 0.00 0.00 0.00 83 1021.2
20260506150601 59 153 1.7 1.7 0.00 0.00 0.00 83 1021.1
20260506150057 59 108 0.0 0.0 0.00 0.00 0.00 84 1021.2
20260506145554 59 112 0.0 0.0 0.00 0.00 0.00 85 1021.3
20260506145052 58 104 0.0 0.0 0.00 0.00 0.00 85 1021.3
20260506144548 58 117 0.0 0.0 0.00 0.00 0.00 85 1021.2
20260506144045 58 99 0.9 0.9 0.00 0.00 0.00 85 1021.1
20260506143543 58 129 0.9 0.9 0.00 0.00 0.00 85 1021.4
20260506143041 58 79 0.9 0.9 0.00 0.00 0.00 86 1021.3
20260506142538 58 113 0.9 0.9 0.00 0.00 0.00 86 1021.0
20260506142037 58 107 0.0 0.0 0.00 0.00 0.00 86 1020.9
20260506141534 58 114 0.0 0.0 0.00 0.00 0.00 86 1021.0
20260506141032 58 118 0.0 0.0 0.00 0.00 0.00 86 1020.9
20260506140529 58 101 0.0 0.0 0.00 0.00 0.00 87 1020.9
20260506140027 58 95 0.9 0.9 0.00 0.00 0.00 87 1021.0
20260506135523 57 112 0.0 0.9 0.00 0.00 0.00 87 1020.8
20260506135019 57 92 0.0 0.9 0.00 0.00 0.00 87 1020.7
20260506134516 57 117 0.0 0.0 0.00 0.00 0.00 87 1020.7
20260506134012 57 116 0.0 0.0 0.00 0.00 0.00 88 1020.6
20260506133510 57 108 0.0 0.0 0.00 0.00 0.00 88 1020.8
20260506133006 57 115 0.0 0.0 0.00 0.00 0.00 88 1020.5
20260506132503 57 118 0.0 0.0 0.00 0.00 0.00 88 1020.6
20260506132001 57 107 0.0 0.0 0.00 0.00 0.00 88 1020.6
20260506131457 57 113 0.0 0.0 0.00 0.00 0.00 88 1020.6
20260506130954 57 102 0.0 0.0 0.00 0.00 0.00 88 1020.7
20260506130450 57 103 0.0 0.0 0.00 0.00 0.00 88 1020.6
20260506125948 57 104 0.0 0.0 0.00 0.00 0.00 88 1020.5
20260506125447 57 104 0.0 0.0 0.00 0.00 0.00 88 1020.4
20260506124944 57 102 0.0 0.0 0.00 0.00 0.00 88 1020.4
20260506124442 57 102 0.0 0.0 0.00 0.00 0.00 88 1020.2
20260506123939 57 96 0.0 0.0 0.00 0.00 0.00 88 1020.3
20260506123438 57 97 0.0 0.0 0.00 0.00 0.00 88 1020.4
20260506122935 57 101 0.0 0.0 0.00 0.00 0.00 88 1020.4
20260506122431 57 101 0.0 0.0 0.00 0.00 0.00 88 1020.1
20260506121930 57 103 0.0 0.0 0.00 0.00 0.00 88 1020.3
20260506121426 57 103 0.0 0.0 0.00 0.00 0.00 88 1020.3
20260506120923 57 103 0.0 0.0 0.00 0.00 0.00 88 1020.2
20260506120421 57 104 0.0 0.0 0.00 0.00 0.00 88 1020.2
20260506115918 57 112 0.0 0.0 0.00 0.00 0.00 88 1020.3
20260506115415 57 116 0.0 0.0 0.00 0.00 0.00 88 1020.4
20260506114914 57 100 0.0 0.0 0.00 0.00 0.00 88 1020.2
20260506114411 57 102 0.0 0.0 0.00 0.00 0.00 87 1020.1
20260506113910 57 107 0.0 0.0 0.00 0.00 0.00 87 1020.2
20260506113407 57 106 0.0 0.0 0.00 0.00 0.00 87 1020.0
20260506112903 57 105 0.0 0.0 0.00 0.00 0.00 87 1019.9
20260506112401 57 99 0.0 0.0 0.00 0.00 0.00 87 1020.0
20260506111858 57 79 0.0 0.9 0.00 0.00 0.00 86 1019.8
20260506111356 57 102 0.0 0.0 0.00 0.00 0.00 86 1019.9
20260506110853 58 88 0.0 0.0 0.00 0.00 0.00 86 1019.9
20260506110350 58 111 0.0 0.0 0.00 0.00 0.00 86 1019.7
20260506105847 58 104 0.0 0.0 0.00 0.00 0.00 86 1019.8
20260506105343 57 108 0.0 0.0 0.00 0.00 0.00 86 1019.9
20260506104841 57 93 0.9 0.9 0.00 0.00 0.00 86 1019.5
20260506104339 58 113 0.0 0.0 0.00 0.00 0.00 86 1019.5
20260506103836 58 127 0.0 0.9 0.00 0.00 0.00 85 1019.6
20260506103334 58 109 0.0 0.0 0.00 0.00 0.00 85 1019.5
20260506102831 58 103 0.0 0.0 0.00 0.00 0.00 85 1019.5
20260506102329 58 107 0.0 0.0 0.00 0.00 0.00 86 1019.6
20260506101826 58 117 0.0 0.0 0.00 0.00 0.00 86 1019.7
20260506101321 58 128 0.0 0.9 0.00 0.00 0.00 86 1019.4
20260506100820 58 99 0.0 0.0 0.00 0.00 0.00 85 1019.5
20260506100318 58 116 0.0 0.0 0.00 0.00 0.00 85 1019.6
20260506095816 58 108 0.0 0.0 0.00 0.00 0.00 86 1019.4
20260506095313 58 116 0.0 0.0 0.00 0.00 0.00 86 1019.5
20260506094809 58 120 0.0 0.0 0.00 0.00 0.00 86 1019.4
20260506094308 58 116 0.9 0.9 0.00 0.00 0.00 86 1019.1
20260506093806 58 126 0.0 0.0 0.00 0.00 0.00 86 1019.4
20260506093302 58 247 0.9 0.9 0.00 0.00 0.00 86 1019.5
20260506092800 58 107 0.0 0.0 0.00 0.00 0.00 86 1019.3
20260506092258 58 111 0.0 0.0 0.00 0.00 0.00 85 1019.2
20260506091755 58 110 0.0 0.0 0.00 0.00 0.00 85 1019.4
20260506091252 58 95 0.0 0.9 0.00 0.00 0.00 85 1019.2
20260506090750 58 112 0.0 0.0 0.00 0.00 0.00 85 1019.5
20260506090247 58 123 0.9 0.9 0.00 0.00 0.00 85 1019.1
20260506085744 58 93 0.0 0.0 0.00 0.00 0.00 85 1019.5
20260506085240 58 107 0.0 0.0 0.00 0.00 0.00 85 1019.6
20260506084737 58 99 0.0 0.0 0.00 0.00 0.00 85 1019.3
20260506084233 58 97 0.0 0.9 0.00 0.00 0.00 85 1019.4
20260506083730 58 100 0.0 0.9 0.00 0.00 0.00 85 1019.3
20260506083228 58 151 0.9 0.9 0.00 0.00 0.00 84 1019.4
20260506082725 58 94 0.0 0.0 0.00 0.00 0.00 85 1019.4
20260506082220 58 92 0.0 0.0 0.00 0.00 0.00 85 1019.5
20260506081719 58 114 0.0 0.0 0.00 0.00 0.00 85 1019.5
20260506081216 58 110 0.0 0.0 0.00 0.00 0.00 85 1019.4
20260506080714 58 168 0.0 0.9 0.00 0.00 0.00 85 1019.4
20260506080210 58 129 0.9 0.9 0.00 0.00 0.00 85 1019.4
20260506073154 58 125 0.9 0.9 0.00 0.00 0.00 85 1019.2
20260506072650 58 111 0.0 0.0 0.00 0.00 0.00 85 1019.1
20260506072148 58 125 0.0 0.0 0.00 0.00 0.00 85 1019.2
20260506071646 58 158 0.9 0.9 0.00 0.00 0.00 85 1019.2
20260506071143 58 112 0.0 0.0 0.00 0.00 0.00 85 1018.9
20260506070640 59 107 0.0 0.0 0.00 0.00 0.00 86 1019.0
20260506070137 59 114 0.0 0.0 0.00 0.03 0.03 85 1018.9
20260506062115 59 113 0.0 0.0 0.00 0.03 0.03 85 1018.5
20260506061610 59 212 1.7 2.6 0.00 0.03 0.03 86 1018.3
20260506061108 58 117 0.0 0.9 0.00 0.03 0.03 86 1018.4
20260506060606 58 122 0.0 0.0 0.00 0.03 0.03 86 1018.3
20260506051029 59 57 0.0 0.9 0.00 0.03 0.03 85 1018.0
20260506050527 59 143 0.9 0.9 0.00 0.03 0.03 84 1018.1
20260506045017 60 98 0.0 0.0 0.00 0.03 0.03 83 1017.9
20260506044516 60 112 0.0 0.0 0.00 0.03 0.03 83 1017.6
20260506044012 60 113 0.9 0.9 0.00 0.03 0.03 83 1017.7
20260506043509 60 119 0.9 1.7 0.00 0.03 0.03 82 1017.3
20260506043008 61 160 0.9 1.7 0.00 0.03 0.03 81 1017.2
20260506042507 61 97 0.9 0.9 0.00 0.03 0.03 81 1017.3
20260506042004 61 155 0.9 1.7 0.00 0.03 0.03 80 1017.4
20260506041503 61 339 1.7 1.7 0.00 0.03 0.03 80 1017.3
20260506040959 62 164 0.0 0.9 0.00 0.03 0.03 80 1017.2
20260506040457 62 101 0.9 0.9 0.00 0.03 0.03 80 1017.1
20260506035952 62 121 0.9 0.9 0.00 0.03 0.03 80 1017.4
20260506035450 62 176 0.9 0.9 0.00 0.03 0.03 80 1017.1
20260506034946 62 180 1.7 1.7 0.00 0.03 0.03 79 1017.3
20260506034444 63 136 0.9 1.7 0.00 0.03 0.03 80 1017.2
20260506033940 63 125 0.0 0.9 0.00 0.03 0.03 81 1016.9
20260506033438 63 142 0.0 0.9 0.00 0.03 0.03 81 1016.9
20260506032934 63 111 0.0 0.0 0.00 0.03 0.03 81 1016.7
20260506032432 63 117 0.0 0.0 0.00 0.03 0.03 81 1016.6
20260506031928 63 108 0.0 0.0 0.00 0.03 0.03 81 1016.7
20260506031426 63 110 0.0 0.0 0.00 0.03 0.03 81 1016.3
20260506030923 63 108 0.0 0.0 0.00 0.03 0.03 80 1016.4
20260506030421 63 86 0.0 0.9 0.00 0.03 0.03 80 1016.6
20260506025918 63 103 0.0 0.0 0.00 0.03 0.03 80 1016.3
20260506025415 63 99 0.0 0.0 0.00 0.03 0.03 80 1016.2
20260506024911 63 109 0.0 0.9 0.00 0.03 0.03 79 1016.2
20260506024408 64 116 0.0 0.0 0.00 0.03 0.03 78 1016.2
20260506023904 64 91 0.0 0.0 0.00 0.03 0.03 78 1016.1
20260506023401 64 155 0.0 0.9 0.00 0.03 0.03 78 1016.1
20260506022858 64 108 0.9 1.7 0.00 0.03 0.03 78 1016.0
20260506022356 64 107 0.0 0.0 0.00 0.03 0.03 78 1015.7
20260506021853 64 125 0.0 0.0 0.00 0.03 0.03 78 1016.1
20260506021350 64 97 0.9 1.7 0.00 0.03 0.03 78 1016.0
20260506020847 65 106 0.9 0.9 0.00 0.03 0.03 77 1015.8
20260506020345 65 130 0.0 0.0 0.00 0.03 0.03 77 1015.8
20260506015842 65 99 0.0 0.9 0.00 0.03 0.03 76 1016.0
20260506015339 65 112 0.0 0.9 0.00 0.03 0.03 76 1016.2
20260506014836 65 105 0.9 1.7 0.00 0.03 0.03 76 1015.7
20260506014333 65 90 0.9 0.9 0.00 0.03 0.03 75 1015.9
20260506013829 65 153 0.9 0.9 0.00 0.03 0.03 74 1015.9
20260506013327 65 108 0.9 0.9 0.00 0.03 0.03 73 1015.8
20260506012823 65 128 0.9 1.7 0.00 0.03 0.03 72 1015.9
20260506012321 66 102 0.0 0.9 0.00 0.03 0.03 72 1015.6
20260506011818 66 91 0.0 0.9 0.00 0.03 0.03 74 1015.8
20260506011314 66 102 0.0 0.9 0.00 0.03 0.03 73 1015.7
20260506010812 66 96 0.0 0.0 0.00 0.03 0.03 73 1015.6
20260506010310 66 97 0.0 0.0 0.00 0.03 0.03 74 1015.7
20260506005806 65 106 0.0 0.0 0.00 0.03 0.03 74 1015.7
20260506005305 65 101 0.0 0.9 0.00 0.03 0.03 74 1015.5
20260506004759 65 120 0.9 0.9 0.00 0.03 0.03 75 1015.5
20260506004257 65 110 2.6 2.6 0.00 0.03 0.03 75 1015.7
20260506003753 65 127 0.9 0.9 0.00 0.03 0.03 75 1015.6
20260506003249 65 112 0.9 0.9 0.00 0.03 0.03 75 1015.4
20260506002745 65 114 0.9 0.9 0.00 0.03 0.03 75 1015.7
20260506002242 65 73 1.7 1.7 0.00 0.03 0.03 75 1015.6
20260506001738 65 115 0.9 0.9 0.00 0.03 0.03 75 1015.5
20260506001235 65 112 1.7 1.7 0.00 0.03 0.03 74 1015.5
20260506000732 66 107 1.7 2.6 0.00 0.03 0.03 74 1015.4
20260506000230 66 116 0.9 0.9 0.00 0.03 0.03 74 1015.5
20260505235726 66 117 0.9 0.9 0.00 0.03 0.03 74 1015.4
20260505235224 66 125 0.9 0.9 0.00 0.03 0.03 74 1015.6
20260505234721 66 114 0.0 0.0 0.00 0.03 0.03 74 1015.5
20260505234218 66 114 0.9 0.9 0.00 0.03 0.03 74 1015.5
20260505233714 65 49 0.9 0.9 0.00 0.03 0.03 74 1015.2
20260505233213 66 103 0.9 1.7 0.00 0.03 0.03 74 1015.4
20260505232710 66 90 0.9 1.7 0.00 0.03 0.03 74 1015.5
20260505232207 66 78 0.9 1.7 0.00 0.03 0.03 73 1015.3
20260505231704 66 123 0.9 1.7 0.00 0.03 0.03 75 1015.5
20260505231203 66 323 1.7 2.6 0.00 0.03 0.03 73 1015.5
20260505230701 66 151 1.7 1.7 0.00 0.03 0.03 73 1015.5
20260505230157 66 311 0.0 0.9 0.00 0.03 0.03 74 1015.4
20260505225653 66 160 0.9 1.7 0.00 0.03 0.03 74 1015.6
20260505225150 66 96 0.0 0.0 0.00 0.03 0.03 73 1015.4
20260505224645 68 206 1.7 1.7 0.00 0.03 0.03 71 1015.6
20260505224144 66 112 0.0 0.0 0.00 0.03 0.03 74 1015.6
20260505223641 67 67 0.9 0.9 0.00 0.03 0.03 72 1015.6
20260505223136 68 99 0.0 0.0 0.00 0.03 0.03 72 1015.6
20260505222633 67 85 0.9 0.9 0.00 0.03 0.03 72 1015.9
20260505222129 67 140 0.9 0.9 0.00 0.03 0.03 71 1015.7
20260505221626 66 117 0.9 0.9 0.00 0.03 0.03 73 1015.9
20260505221123 67 123 0.9 0.9 0.00 0.03 0.03 70 1016.0
20260505220621 67 97 0.9 0.9 0.00 0.03 0.03 72 1016.0
20260505220118 68 136 1.7 1.7 0.00 0.03 0.03 71 1016.1
20260505215615 67 98 0.0 0.0 0.00 0.03 0.03 72 1015.9
20260505215113 67 98 0.9 0.9 0.00 0.03 0.03 73 1016.2
20260505214611 68 99 0.0 0.9 0.00 0.03 0.03 71 1015.9
20260505214108 66 119 0.0 0.0 0.00 0.03 0.03 74 1016.0
20260505213606 66 97 0.0 0.0 0.00 0.03 0.03 74 1016.1
20260505213102 65 131 0.9 0.9 0.00 0.03 0.03 76 1016.0
20260505212558 65 115 0.0 0.0 0.00 0.03 0.03 75 1015.8
20260505212056 64 111 0.0 0.0 0.00 0.03 0.03 78 1016.0
20260505211552 64 109 0.9 0.9 0.00 0.03 0.03 77 1016.3
20260505211049 64 131 0.9 0.9 0.00 0.03 0.03 79 1016.3
20260505210546 63 110 0.9 0.9 0.00 0.03 0.03 81 1016.3
20260505210043 63 201 0.9 0.9 0.00 0.03 0.03 81 1016.1
20260505205541 62 171 1.7 2.6 0.00 0.03 0.03 81 1016.1
20260505205038 62 118 0.0 0.9 0.00 0.03 0.03 82 1016.5
20260505204536 62 116 0.0 0.0 0.00 0.03 0.03 82 1016.4
20260505204033 62 131 0.0 0.0 0.00 0.03 0.03 82 1016.5
20260505203529 62 113 0.0 0.0 0.00 0.03 0.03 83 1016.3
20260505203027 62 108 0.0 0.0 0.00 0.03 0.03 83 1016.1
20260505202522 62 103 0.0 0.0 0.00 0.03 0.03 83 1016.4
20260505202018 62 138 1.7 1.7 0.00 0.03 0.03 83 1016.2
20260505201516 62 96 0.0 0.9 0.00 0.03 0.03 82 1016.4
20260505201013 62 173 0.9 0.9 0.00 0.03 0.03 82 1016.4
20260505200511 62 105 0.9 1.7 0.00 0.03 0.03 84 1016.3
20260505200007 62 69 0.9 1.7 0.00 0.03 0.03 82 1016.4
20260505195504 62 117 0.0 0.0 0.00 0.03 0.03 82 1016.6
20260505195001 62 152 0.0 0.9 0.00 0.03 0.03 83 1016.5
20260505194459 62 104 0.9 0.9 0.00 0.03 0.03 82 1016.5
20260505193958 62 298 1.7 2.6 0.00 0.03 0.03 82 1016.6
20260505193456 63 99 0.9 1.7 0.00 0.03 0.03 80 1016.4
20260505192953 63 134 0.9 0.9 0.00 0.03 0.03 77 1016.4
20260505192452 63 90 0.0 0.9 0.00 0.03 0.03 77 1016.2